Location: Newark
(39.0622°N, 106.5590°E)
Time: 10:51:55
(UTC+00:00)

Courier 1B - Pass Details

Date: 30 January 2020
Orbit: 962 x 1209 km, 28.3° (Epoch: 25 February)

Event Time Altitude Azimuth Distance (km) Brightness Sun altitude
Rises 16:44:23 0° 221° (SW) 3,661 - -68.1°
Reaches altitude 10° 16:47:41 10° 205° (SSW) 2,743 - -68.2°
Maximum altitude 16:52:26 21° 159° (SSE) 2,118 - -68.4°
Drops below altitude 10° 16:57:20 10° 114° (ESE) 2,859 - -68.5°
Sets 17:00:51 0° 99° (E) 3,864 - -68.6°
